Delta Virtual Airport Information Service

Taiwan Taoyuan International Airport

ICAO: RCTP Country: Taiwan
Latitude: 25.0777 Longitude: 121.233
Latest Arrival : CAL5834 (2) (VHHH-RCTP) Latest Departure : DALJUMP (RCTP-EHAM)


WX CaptureLIVE
Data provided by noaa.gov | Fetched at 17:38:59

METAR : RCTP 172100Z VRB02KT 9999 FEW012 SCT016 BKN030 28/26 Q1005 NOSIG RMK A2970

TAF : RCTP 172100Z VRB02KT 9999 FEW012 SCT016 BKN030 28/26 Q1005 NOSIG RMK A2970


Runway Data for RCTP
Data provided by openaviationdata.com

Runway ID Mag Var Hdg Length Elevation Surface ILS Freq ILS Id ILS Slope
5 -3 52° 12020 ft 107 ft Concrete 111.1 ITIA 3
6 -3 52° 11001 ft 107 ft Concrete 110.7 ICKS 3
23 -3 232° 12020 ft 107 ft Concrete 109.3 ITYA 3
24 -3 232° 11001 ft 107 ft Concrete 111.9 ICJN 3

Taiwan Taoyuan International Airport, Taiwan
Use only for reference purposes



Not for navigational purposes.